This is the latest recevied weather packets stored in our database for station/object SR6WVX. If no packets are shown the sender has not sent any weather packets the latest 1 day(s).
| Time | Temp. | Humidity | Pressure | Rain* | Wind** | Luminosity | Snow |
|---|---|---|---|---|---|---|---|
| 1778026978 | 11.67° C | 85% | 999.5 hPa | 0 mm | - | - | - |
| 1778026678 | 11.67° C | 85% | 999.4 hPa | 0 mm | - | - | - |
| 1778025477 | 11.11° C | 85% | 999.7 hPa | 0 mm | - | - | - |
| 1778023675 | 10.56° C | 82% | 999.5 hPa | 0 mm | - | - | - |
| 1778023375 | 10.56° C | 82% | 999.6 hPa | 0 mm | - | - | - |
| 1778022174 | 11.11° C | 79% | 999.6 hPa | 0 mm | - | - | - |
| 1778021273 | 11.67° C | 78% | 999.8 hPa | 0 mm | - | - | - |
| 1778020973 | 12.22° C | 78% | 999.9 hPa | 0 mm | - | - | - |
| 1778020072 | 12.78° C | 75% | 1000.1 hPa | 0 mm | - | - | - |
| 1778019772 | 12.78° C | 75% | 1000.1 hPa | 0 mm | - | - | - |
| 1778018871 | 13.89° C | 73% | 1000.3 hPa | 0 mm | - | - | - |
| 1778017670 | 15° C | 71% | 1000.3 hPa | 0 mm | - | - | - |
| 1778016469 | 15.56° C | 70% | 1000.3 hPa | 0 mm | - | - | - |
| 1778015868 | 15.56° C | 70% | 1000.1 hPa | 0 mm | - | - | - |
| 1778015268 | 16.11° C | 69% | 1000.3 hPa | 0 mm | - | - | - |
| 1778014367 | 16.11° C | 69% | 1000.4 hPa | 0 mm | - | - | - |
| 1778013466 | 16.67° C | 69% | 1000.4 hPa | 0 mm | - | - | - |
| 1778013166 | 16.67° C | 69% | 1000.5 hPa | 0 mm | - | - | - |
| 1778012265 | 16.67° C | 69% | 1000.6 hPa | 0 mm | - | - | - |
| 1778011965 | 16.67° C | 70% | 1000.4 hPa | 0 mm | - | - | - |
* Rain latest hour (hover to see other rain measurements)
** Current wind speed in m/s (hover to see current wind gust speed)